Location: Alta
(39.2070°N, 120.8111°W)
Time: 02:47:14
(UTC+00:00)

BlueWalker 3 - Visible Passes

Search period start: 06 March 2026 00:00
Search period end: 16 March 2026 00:00
Orbit: 451 x 458 km, 53.2° (Epoch: 5 March)

Date Brightness Start Highest point End Pass type
(mag) Time Alt. Az. Time Alt. Az. Time Alt. Az.
9 Mar 4.5 13:24:28 10° N 13:25:38 11° NNE 13:26:48 10° NNE visible
10 Mar 4.6 12:48:50 10° N 12:49:19 10° NNE 12:49:47 10° NNE visible
11 Mar 3.8 13:48:33 10° NNW 13:51:30 23° NNE 13:54:27 10° E visible
12 Mar 4.1 13:12:32 10° NNW 13:15:13 19° NNE 13:17:54 10° ENE visible
13 Mar 4.3 12:36:32 10° NNW 12:38:55 17° NNE 12:41:18 10° ENE visible
14 Mar 4.4 12:01:52 14° N 12:02:35 14° NNE 12:04:37 10° NE visible
14 Mar 2.2 13:37:02 10° NW 13:40:36 64° NE 13:44:09 10° ESE visible
15 Mar 5.0 11:27:17 11° NE 11:27:17 11° NE 11:27:52 10° NE visible
15 Mar 2.7 13:00:59 11° NW 13:04:22 47° NE 13:07:50 10° ESE visible
